Regional Weather Roundup
Issued by NWS

Home | Current Version | Previous Version | Graphics & Text | Print | Product List | Glossary On
Versions: 1 2 3 4 5 6 7 8 9 10 11 12 13 14 15 16 17 18 19 20 21 22 23 24 25 26 27 28 29 30 31 32 33 34 35 36 37 38 39 40 41 42 43 44 45 46 47 48 49 50
000
ASUS43 KLSX 210707
RWRMO

WEATHER SUMMARY FOR MISSOURI
NATIONAL WEATHER SERVICE SPRINGFIELD MO
200 AM CDT TUE OCT 21 2014

NOTE: "FAIR" INDICATES FEW OR NO CLOUDS BELOW 12,000 FEET WITH NO
       SIGNIFICANT WEATHER AND/OR OBSTRUCTIONS TO VISIBILITY.
       CURRENT SKY AND/OR WEATHER CONDITIONS ARE NOT AVAILABLE FOR
       CHILLICOTHE AND FARMINGTON.

MOZ001>031-035>038-043-044-053-054-210800-
...NORTHERN AND WESTERN MISSOURI...

CITY           SKY/WX    TMP DP  RH WIND       PRES   REMARKS
KANSAS CTY INT CLEAR     53  41  63 SE3       30.07F
KANSAS C DTWN  CLEAR     51  47  86 CALM      30.08S
LEE`S SUMMIT   CLEAR     55  44  66 CALM      30.08S
ST JOSEPH      CLEAR     39  37  92 CALM      30.09R FOG
CHILLICOTHE      N/A     44  42  93 CALM      30.08S
KIRKSVILLE     CLEAR     44  43  96 W3        30.07R

$$
MOZ066>068-077>081-088>096-101>105-210800-
...SOUTHWEST MISSOURI...

CITY           SKY/WX    TMP DP  RH WIND       PRES   REMARKS
SPRINGFIELD    CLEAR     49  47  93 CALM      30.09R FOG
JOPLIN         CLEAR     52  52 100 S6        30.09R FOG

$$
MOZ032>034-039>042-045>050-055>058-069>072-210800-
...CENTRAL MISSOURI...

CITY           SKY/WX    TMP DP  RH WIND       PRES   REMARKS
COLUMBIA       CLEAR     52  43  71 W6        30.07R
JEFFERSON CITY CLEAR     45  43  93 CALM      30.07R
ROLLA          CLEAR     46  41  82 SW5       30.06R
SEDALIA        CLEAR     48  44  86 SW6       30.08S
WHITEMAN AFB   CLEAR     47  43  88 SW1       30.08R
OSAGE BEACH    CLEAR     45  43  93 CALM      30.08R

$$
MOZ051-052-059>065-210800-
...EAST CENTRAL MISSOURI...

CITY           SKY/WX    TMP DP  RH WIND       PRES   REMARKS
ST LOUIS INTL  CLEAR     52  44  74 W3        30.03S
SPIRIT OF STL  CLEAR     46  44  93 CALM      30.03S
ST CHARLES     CLEAR     46  45  96 CALM      30.02S

$$
MOZ072>076-082>087-097>100-106>115-210800-
...SOUTH CENTRAL AND SOUTHEAST MISSOURI...

CITY           SKY/WX    TMP DP  RH WIND       PRES   REMARKS
CAPE GIRARDEAU CLEAR     46  44  93 CALM      30.03S
FARMINGTON     CLEAR     46  43  87 CALM      30.07R
WEST PLAINS    CLEAR     51  46  83 CALM      30.09R

$$



USA.gov is the U.S. government's official web portal to all federal, state and local government web resources and services.